Temperature
16 13 13 14 14 15 15 14 12 11 11 10 7 5 6 7 6 5 5 5 4 3 3 3 2 2 1 -0 -1 -2 -2 -2 -2 -2 -3 -3 -4 -4 -5 -6 -6 -7 -7 -7
13 13 14 14 14 15 15 13 11 10 11 10 7 6 5 6 6 6 5 5 4 3 3 2 2 1 0 -1 -2 -2 -3 -3 -3 -4 -4 -5 -5 -6 -6 -7 -7 -7 -8 -8
14 14 15 14 12 14 13 14 12 11 10 9 8 7 5 5 6 6 5 5 4 3 3 2 1 0 -1 -2 -2 -3 -3 -4 -4 -5 -5 -5 -6 -6 -7 -7 -8 -8 -9 -9
13 13 14 13 13 13 14 13 13 11 9 8 9 7 5 4 4 5 4 4 3 3 2 2 1 -1 -2 -2 -3 -3 -4 -5 -5 -6 -6 -7 -8 -8 -9 -9 -9 -9 -9 -10
13 13 13 14 13 13 13 13 12 12 10 9 8 7 6 4 4 3 3 3 3 2 2 1 -0 -1 -2 -3 -3 -4 -4 -5 -6 -6 -7 -8 -8 -9 -10 -10 -10 -10 -10 -10
13 14 13 13 13 13 13 12 11 9 8 9 9 6 7 3 4 3 3 3 2 2 1 1 -0 -1 -2 -3 -4 -4 -5 -6 -6 -7 -8 -8 -9 -10 -10 -11 -11 -11 -11 -11
14 14 13 13 13 12 11 10 10 11 10 10 10 8 7 4 3 3 3 2 2 2 1 0 -1 -2 -3 -4 -4 -5 -6 -6 -7 -8 -8 -9 -10 -11 -11 -12 -12 -12 -13 -13
14 14 13 12 12 12 12 12 11 11 10 9 9 9 5 4 5 4 3 2 2 1 1 -0 -2 -3 -4 -4 -5 -5 -6 -7 -7 -8 -9 -10 -11 -11 -12 -12 -13 -13 -13 -13
13 13 13 12 12 12 12 10 10 9 9 8 8 7 5 4 3 3 2 2 1 1 -0 -1 -3 -3 -4 -5 -5 -6 -6 -7 -8 -9 -10 -11 -11 -12 -12 -13 -13 -13 -13 -14
11 12 12 12 12 12 12 10 8 9 9 9 8 8 6 3 2 2 1 1 0 -0 -1 -2 -3 -4 -5 -5 -5 -6 -7 -8 -9 -10 -11 -11 -12 -12 -13 -13 -13 -13 -14 -14
11 11 12 12 12 13 12 12 10 8 7 8 8 8 6 3 3 1 1 1 0 -1 -2 -3 -4 -4 -5 -5 -5 -6 -7 -8 -9 -10 -11 -12 -12 -12 -13 -13 -13 -14 -14 -14
9 9 10 11 11 10 11 11 9 9 9 7 6 7 5 3 3 2 1 0 -0 -1 -3 -4 -4 -4 -4 -5 -5 -6 -8 -9 -10 -11 -11 -12 -12 -13 -13 -13 -13 -13 -14 -14
9 9 12 13 11 10 10 10 9 8 7 6 6 7 3 3 2 1 1 -0 -1 -2 -3 -3 -4 -4 -4 -5 -6 -7 -8 -9 -10 -11 -11 -12 -12 -13 -13 -13 -13 -13 -13 -13
9 8 11 13 13 11 10 10 9 7 6 5 6 7 4 2 -0 -0 -0 -1 -2 -3 -3 -3 -3 -4 -4 -5 -6 -8 -9 -9 -10 -11 -11 -12 -13 -13 -13 -13 -13 -13 -13 -13
8 8 9 9 9 9 9 9 8 7 6 6 7 6 5 2 0 0 -0 -2 -2 -3 -3 -3 -3 -4 -5 -6 -7 -8 -9 -9 -10 -10 -11 -12 -12 -13 -13 -13 -13 -13 -13 -13
7 8 8 8 9 8 8 8 7 7 6 6 6 6 4 2 1 -0 -1 -2 -2 -3 -3 -3 -4 -4 -5 -6 -7 -8 -9 -9 -10 -10 -11 -12 -12 -13 -13 -13 -13 -13 -13 -13
6 7 8 7 6 8 10 9 7 6 6 6 6 5 1 -0 -1 -1 -1 -1 -2 -2 -2 -3 -4 -5 -5 -6 -7 -8 -8 -9 -9 -10 -11 -12 -13 -13 -13 -13 -13 -13 -13 -13
6 6 5 6 8 12 11 8 7 7 7 6 6 4 2 1 0 -0 -1 -1 -1 -2 -3 -3 -4 -5 -5 -6 -7 -8 -8 -8 -9 -10 -11 -12 -12 -13 -13 -13 -13 -13 -13 -13
6 6 5 5 7 7 9 8 8 7 7 6 4 2 0 -0 -2 -3 -2 -2 -2 -2 -3 -4 -4 -5 -5 -6 -7 -7 -7 -8 -9 -10 -11 -11 -12 -13 -13 -13 -13 -13 -13 -13
4 4 4 4 8 9 11 8 8 7 6 7 5 1 -2 -2 -2 -2 -1 -2 -2 -2 -3 -4 -4 -5 -5 -6 -6 -7 -7 -8 -9 -10 -10 -11 -12 -12 -13 -13 -13 -13 -13 -13
5 4 4 4 5 7 8 7 7 8 9 7 6 3 0 0 1 2 -0 -2 -2 -3 -3 -4 -4 -5 -5 -6 -6 -7 -7 -8 -9 -9 -10 -11 -11 -12 -12 -13 -13 -13 -13 -13
6 4 3 3 4 7 7 5 6 7 8 8 7 6 3 3 2 1 -1 -2 -2 -3 -4 -4 -4 -4 -5 -6 -6 -6 -7 -8 -8 -9 -9 -10 -11 -12 -12 -12 -12 -13 -13 -13
6 7 6 6 9 11 10 11 11 9 8 8 7 6 5 3 2 0 -1 -2 -2 -3 -4 -4 -4 -4 -5 -6 -6 -6 -7 -7 -8 -8 -9 -10 -10 -11 -11 -12 -12 -13 -13 -13
7 7 6 5 7 10 10 10 10 9 8 8 7 5 4 3 1 -0 -1 -2 -2 -3 -3 -4 -4 -4 -5 -6 -6 -6 -7 -7 -8 -8 -8 -9 -10 -10 -11 -11 -12 -13 -13 -13
7 5 5 6 7 9 11 11 10 8 7 7 5 5 4 3 1 0 -1 -1 -2 -3 -3 -3 -4 -4 -5 -5 -6 -6 -7 -7 -7 -8 -8 -9 -9 -10 -10 -11 -11 -12 -12 -13
6 7 7 11 13 10 13 14 11 8 7 6 5 3 3 2 1 0 -1 -1 -2 -3 -3 -3 -4 -4 -5 -5 -6 -6 -7 -7 -7 -8 -8 -9 -9 -10 -10 -10 -10 -11 -12 -12
Wind_Speed
7 8 5 3 3 3 2 3 4 4 3 4 6 7 9 6 8 8 7 7 6 6 5 4 3 3 5 7 8 8 8 9 11 8 10 10 11 9 13 18 21 22 23 23
8 5 4 4 3 4 4 5 3 2 1 1 3 5 6 6 7 8 8 7 6 6 5 3 2 5 6 5 6 7 8 7 9 8 8 7 7 7 13 16 18 20 22 22
7 2 5 5 8 7 5 3 3 4 2 1 2 1 5 3 3 4 5 6 6 6 5 2 2 3 3 4 6 8 7 7 10 12 11 11 5 5 6 7 9 19 22 21
6 5 6 6 5 4 1 3 2 4 3 3 3 4 5 6 5 4 5 5 5 5 4 2 2 1 2 4 5 6 7 7 10 12 8 10 11 10 10 8 8 18 20 20
3 4 6 5 3 1 4 3 3 2 3 1 1 3 4 5 6 6 6 6 5 5 4 3 1 1 3 5 6 6 7 7 9 10 8 9 9 8 9 10 10 9 15 18
2 1 1 2 4 2 2 3 3 4 4 3 5 5 5 6 7 6 6 6 6 5 3 2 2 4 5 6 6 7 8 7 7 8 8 9 10 11 13 13 11 10 8 12
3 3 4 4 4 7 7 6 6 6 5 5 2 5 5 4 5 8 9 8 6 4 2 3 6 6 7 8 8 8 8 8 8 8 9 10 10 10 12 13 12 13 11 10
1 4 3 3 2 2 4 4 4 3 5 7 4 5 4 5 4 6 8 8 6 4 3 5 5 6 7 8 8 8 9 9 9 9 10 8 8 8 9 11 12 13 12 11
2 3 1 0 1 1 2 2 5 5 3 5 7 5 3 3 4 6 7 6 5 4 4 5 5 6 7 8 8 9 9 9 10 10 10 9 8 10 11 10 9 9 12 16
2 3 3 1 2 0 2 5 5 2 2 6 8 7 5 9 10 7 7 6 5 4 4 5 6 6 6 7 7 8 8 9 10 10 10 14 10 11 12 11 12 12 14 17
1 2 4 2 2 1 1 2 3 3 4 3 6 8 4 10 10 9 8 7 6 4 3 4 5 5 6 7 8 8 9 10 10 11 10 11 11 11 12 10 12 12 13 16
2 3 3 5 2 1 2 3 5 2 4 4 4 8 2 7 8 9 9 7 6 5 3 2 4 5 7 8 9 9 10 10 11 11 10 11 11 11 12 12 13 15 13 16
2 3 4 6 3 1 3 4 5 5 3 3 4 7 3 6 7 8 9 7 5 4 1 2 4 6 7 8 9 9 10 11 10 10 11 11 12 12 12 13 13 15 14 14
3 2 5 6 7 4 5 5 6 6 4 5 9 8 5 7 8 8 7 7 5 3 0 3 5 6 7 8 9 9 10 10 11 11 11 12 12 13 13 12 12 13 13 14
3 3 5 8 7 4 7 8 8 10 9 10 10 7 8 11 12 10 8 7 5 2 1 4 6 7 7 8 8 9 10 10 10 11 12 12 12 12 12 13 12 12 13 15
2 1 3 6 4 5 7 9 9 9 7 10 11 11 2 8 8 8 8 7 5 3 2 4 6 7 8 8 9 10 10 10 9 10 11 12 13 13 13 12 12 13 14 15
3 1 2 5 8 8 9 7 8 8 9 9 10 7 10 7 11 11 9 7 6 4 3 3 4 5 6 7 8 9 9 9 9 10 11 12 12 13 13 14 13 13 13 13
5 3 2 3 8 5 7 2 7 8 9 10 7 7 12 8 7 6 7 8 7 5 3 1 3 4 5 6 7 8 8 8 9 10 11 11 11 11 12 11 12 11 9 11
3 5 3 1 3 10 9 5 6 6 9 8 9 9 9 12 7 3 6 7 7 6 4 2 1 2 5 6 7 7 8 8 9 10 11 11 11 11 11 11 11 9 9 8
5 5 5 4 2 7 7 3 3 3 7 6 11 13 13 12 5 6 9 8 7 6 4 2 0 2 4 6 6 7 8 9 10 11 11 11 11 11 10 11 9 8 8 9
2 3 4 5 7 10 6 6 6 2 7 5 11 13 16 12 6 9 12 8 7 6 5 3 2 2 4 5 6 7 7 9 10 10 10 10 11 10 9 9 8 9 9 9
9 7 7 6 5 10 7 9 10 10 3 7 9 10 10 8 10 13 11 9 8 7 5 3 2 2 4 5 6 6 7 8 9 9 9 10 10 9 10 9 9 8 8 7
9 10 7 11 11 6 11 11 7 7 8 8 9 8 11 11 10 10 10 9 8 7 5 3 2 2 3 5 4 5 7 8 9 9 9 9 9 8 8 7 8 8 7 6
6 6 6 8 14 10 11 9 6 8 8 9 9 11 12 12 12 11 11 9 8 7 5 4 3 2 3 5 5 5 7 7 7 8 9 8 7 8 7 7 7 7 7 6
8 9 6 9 11 8 8 11 10 9 9 9 9 9 12 15 12 12 11 10 8 7 5 4 3 1 2 4 5 6 7 7 7 8 8 8 9 8 7 8 7 9 6 10
9 11 10 12 11 9 8 8 13 13 12 14 12 10 10 13 14 13 11 9 8 7 6 5 4 1 1 3 4 6 6 6 6 7 7 6 6 7 8 7 8 13 14 17
Wind_Direction
27 62 51 321 271 229 223 145 168 212 203 180 186 178 191 168 141 152 164 165 152 144 140 121 96 70 43 26 12 3 353 348 354 354 354 350 347 343 344 346 345 346 346 344
47 44 306 308 8 56 83 108 144 227 255 174 163 195 196 178 171 171 170 166 149 134 137 132 64 44 34 9 351 355 353 346 350 347 339 335 326 322 331 332 336 341 343 341
102 313 321 59 38 48 51 101 190 211 210 76 130 220 189 206 169 161 136 139 138 135 135 126 50 43 12 348 348 1 348 341 343 343 341 342 326 318 330 329 334 338 337 336
69 4 39 59 46 45 310 213 205 153 146 272 164 290 212 194 193 173 137 131 127 120 127 118 61 34 357 344 349 350 341 334 338 343 343 345 346 337 332 328 323 328 331 331
46 18 38 33 334 318 265 247 225 171 175 308 227 234 281 165 206 202 176 156 146 144 134 113 98 65 19 359 350 340 334 328 333 338 336 333 330 323 324 325 323 321 326 328
72 12 67 309 295 280 313 43 66 57 77 308 219 185 257 204 209 177 167 158 155 148 129 103 57 32 6 353 344 338 334 329 329 333 331 328 326 324 328 330 327 328 324 325
11 346 3 5 358 8 40 53 19 356 358 274 222 195 252 209 184 164 163 164 160 145 118 52 31 9 352 346 340 335 335 334 335 334 331 327 324 322 324 327 328 328 327 326
197 296 325 18 65 344 4 99 118 272 273 292 321 254 251 212 179 135 140 148 143 122 74 50 29 4 348 343 339 338 339 339 338 337 331 321 320 323 323 322 325 325 324 321
144 265 288 293 23 115 75 105 156 155 291 285 283 279 280 215 184 143 140 137 133 105 69 46 20 3 351 344 342 340 341 340 337 333 326 323 322 319 318 317 317 321 321 323
135 282 292 288 13 285 136 142 93 120 299 295 292 281 241 202 208 178 162 154 142 107 65 38 12 355 346 341 338 340 341 336 329 327 324 338 324 319 319 320 322 321 320 320
137 183 305 335 228 238 150 174 137 135 176 219 289 278 231 190 180 171 168 160 148 120 74 25 353 343 340 342 343 343 340 336 332 328 324 325 323 321 322 322 321 320 319 321
73 120 282 266 208 176 235 205 156 183 260 209 239 278 77 143 143 145 150 150 143 119 89 12 342 343 347 349 347 344 339 336 332 330 330 329 326 324 325 324 322 322 320 322
98 118 351 346 340 217 221 200 162 136 141 211 227 267 107 111 117 137 146 149 143 127 89 346 350 354 351 349 346 341 336 334 333 336 335 331 329 329 326 324 323 324 325 323
107 149 192 236 253 249 236 211 175 149 197 237 234 252 186 170 153 155 156 157 157 158 65 2 2 355 349 345 339 335 333 334 342 340 335 333 331 329 326 325 325 327 328 328
109 221 255 263 277 267 246 231 202 197 203 219 247 242 231 187 171 169 165 168 169 174 29 17 7 353 346 342 336 333 332 336 338 337 338 335 331 329 329 330 331 333 336 339
113 219 314 295 329 310 272 248 222 222 220 236 261 269 177 128 131 151 168 174 176 168 53 20 3 352 344 338 334 335 335 335 335 336 335 333 335 335 335 335 340 342 342 340
148 106 353 292 318 338 297 245 194 213 215 206 229 227 145 153 171 175 179 181 175 148 82 23 354 338 330 329 331 333 332 330 335 334 333 334 335 336 337 342 345 343 341 342
144 122 110 317 354 295 254 181 195 221 243 217 217 171 169 157 146 152 168 174 168 146 120 17 334 326 325 327 331 329 329 333 335 334 333 334 336 336 336 341 343 339 336 341
108 138 125 88 302 280 291 231 200 214 274 214 184 149 126 121 109 183 195 174 164 152 147 169 274 298 325 335 333 334 335 337 338 340 338 336 336 336 339 343 341 337 335 339
62 87 123 143 230 257 256 164 136 88 279 215 161 156 154 152 175 214 179 163 152 146 143 147 318 345 352 339 338 344 341 343 344 341 336 335 338 337 338 341 338 336 336 345
120 111 167 187 233 265 247 156 137 190 263 166 158 161 166 186 188 152 149 153 153 146 144 137 88 27 349 337 347 350 343 342 335 332 333 337 338 336 343 339 335 335 342 342
178 174 194 166 213 260 188 147 188 216 135 142 151 154 155 144 126 138 149 153 153 150 151 144 99 31 351 350 356 348 339 327 326 330 334 334 334 341 351 334 333 334 334 332
198 193 187 194 222 243 176 199 202 154 159 163 154 149 139 141 152 156 157 158 158 161 165 156 119 51 2 354 354 341 323 323 329 332 331 328 331 331 335 329 330 336 338 335
242 184 193 243 262 247 219 226 193 177 170 162 149 149 153 155 160 161 161 163 164 167 167 158 124 67 3 343 342 323 315 323 328 329 326 327 330 332 329 337 342 340 340 340
220 177 213 253 269 284 251 215 189 166 145 140 139 152 159 154 159 165 165 168 170 169 167 158 143 121 336 332 331 325 321 324 328 324 322 326 335 328 328 339 337 342 330 350
194 185 195 236 228 206 236 202 169 159 163 159 149 148 157 161 163 163 167 167 166 168 167 164 161 157 305 324 323 319 315 319 324 330 327 322 327 331 332 327 331 344 350 352
Height
1582 1588 1596 1594 1593 1591 1592 1596 1603 1604 1602 1605 1609 1613 1614 1615 1616 1617 1618 1618 1618 1617 1616 1614 1611 1608 1605 1600 1594 1588 1582 1576 1569 1563 1556 1550 1544 1539 1534 1529 1523 1517 1511 1505
1590 1595 1593 1591 1590 1589 1591 1598 1603 1604 1602 1604 1609 1613 1613 1614 1615 1616 1616 1617 1617 1616 1615 1613 1610 1607 1603 1598 1592 1586 1580 1574 1568 1561 1555 1549 1543 1537 1532 1526 1520 1514 1508 1502
1593 1596 1591 1592 1594 1593 1597 1596 1599 1602 1604 1605 1609 1612 1615 1615 1615 1616 1616 1616 1616 1616 1614 1612 1609 1605 1601 1595 1590 1585 1579 1573 1566 1560 1553 1546 1540 1534 1527 1521 1516 1510 1505 1499
1595 1595 1593 1594 1596 1596 1596 1595 1595 1599 1606 1608 1607 1614 1614 1614 1614 1615 1615 1615 1615 1615 1613 1611 1607 1603 1599 1594 1589 1583 1577 1571 1564 1558 1551 1543 1536 1530 1524 1518 1512 1507 1501 1495
1598 1596 1596 1596 1596 1595 1595 1593 1594 1596 1601 1606 1608 1613 1611 1614 1614 1614 1614 1614 1614 1613 1612 1609 1605 1601 1597 1593 1587 1582 1575 1569 1562 1556 1549 1542 1536 1529 1522 1516 1509 1502 1497 1491
1597 1597 1597 1596 1595 1594 1593 1595 1597 1602 1606 1608 1603 1613 1603 1612 1609 1610 1612 1613 1613 1612 1610 1607 1604 1600 1596 1591 1585 1579 1573 1567 1560 1554 1547 1541 1534 1526 1519 1511 1504 1498 1492 1486
1600 1598 1597 1596 1595 1595 1596 1602 1609 1606 1611 1605 1598 1604 1602 1606 1605 1606 1609 1611 1611 1610 1608 1605 1602 1598 1594 1588 1583 1577 1571 1564 1558 1551 1545 1539 1532 1524 1517 1509 1501 1494 1487 1481
1602 1603 1598 1598 1599 1600 1599 1602 1613 1615 1617 1610 1598 1599 1605 1604 1605 1606 1607 1609 1609 1608 1606 1604 1600 1596 1592 1586 1581 1575 1568 1562 1555 1549 1542 1536 1530 1522 1515 1507 1500 1492 1485 1478
1605 1603 1598 1598 1598 1598 1599 1605 1606 1616 1616 1616 1605 1600 1604 1604 1605 1606 1607 1607 1607 1606 1604 1602 1599 1595 1590 1585 1579 1573 1566 1560 1554 1547 1540 1533 1527 1520 1512 1504 1497 1490 1483 1476
1604 1605 1599 1598 1598 1598 1599 1603 1612 1613 1616 1615 1606 1599 1598 1602 1602 1604 1605 1605 1605 1605 1603 1601 1597 1593 1588 1583 1577 1571 1565 1559 1552 1546 1539 1532 1525 1517 1509 1502 1494 1487 1480 1473
1603 1606 1602 1600 1599 1597 1599 1601 1604 1613 1617 1618 1614 1598 1591 1593 1595 1600 1602 1603 1604 1603 1601 1599 1595 1591 1586 1581 1575 1569 1563 1557 1550 1543 1536 1529 1522 1514 1507 1500 1493 1486 1479 1472
1606 1608 1608 1600 1598 1598 1598 1598 1603 1611 1611 1616 1619 1602 1592 1591 1594 1597 1600 1602 1602 1601 1600 1597 1593 1589 1584 1578 1573 1568 1561 1555 1548 1541 1534 1527 1520 1513 1506 1499 1492 1485 1478 1470
1605 1608 1607 1601 1603 1600 1598 1597 1600 1606 1612 1617 1614 1597 1595 1594 1595 1597 1599 1600 1600 1599 1597 1594 1591 1586 1581 1577 1572 1566 1560 1553 1546 1539 1532 1525 1518 1512 1505 1498 1491 1484 1477 1469
1605 1607 1607 1602 1597 1595 1596 1597 1598 1604 1611 1612 1604 1591 1594 1594 1595 1596 1597 1598 1598 1597 1594 1591 1588 1584 1580 1576 1571 1565 1559 1552 1545 1538 1531 1524 1518 1511 1505 1498 1491 1484 1477 1469
1605 1607 1604 1600 1596 1596 1595 1594 1596 1599 1599 1601 1589 1586 1583 1586 1589 1592 1594 1595 1595 1594 1592 1589 1586 1583 1579 1575 1570 1564 1558 1551 1544 1537 1530 1524 1518 1511 1505 1498 1491 1484 1478 1470
1606 1607 1604 1600 1595 1596 1593 1589 1592 1593 1593 1591 1585 1583 1579 1582 1587 1590 1592 1592 1592 1591 1589 1587 1584 1581 1578 1574 1569 1563 1557 1550 1544 1537 1531 1524 1518 1511 1504 1498 1492 1485 1479 1472
1607 1607 1606 1605 1601 1593 1588 1580 1585 1584 1582 1581 1580 1577 1580 1583 1585 1586 1588 1589 1589 1587 1586 1585 1583 1580 1577 1573 1568 1562 1556 1550 1543 1537 1531 1524 1517 1511 1504 1498 1492 1486 1480 1473
1606 1608 1612 1612 1603 1592 1578 1575 1575 1576 1572 1571 1570 1571 1575 1577 1581 1583 1585 1586 1585 1585 1585 1583 1581 1579 1576 1572 1568 1562 1556 1550 1543 1537 1531 1524 1517 1511 1505 1499 1493 1487 1481 1476
1604 1608 1613 1616 1610 1598 1578 1572 1572 1574 1569 1563 1565 1569 1574 1576 1579 1582 1582 1583 1583 1583 1583 1581 1579 1577 1575 1571 1566 1561 1555 1549 1543 1536 1530 1524 1518 1511 1505 1500 1494 1489 1483 1478
1606 1608 1615 1618 1608 1594 1570 1570 1569 1572 1570 1558 1559 1564 1569 1574 1579 1576 1577 1579 1580 1581 1580 1579 1578 1576 1573 1570 1565 1560 1555 1548 1542 1537 1531 1526 1519 1513 1507 1501 1496 1491 1486 1481
1608 1611 1614 1615 1611 1586 1566 1567 1570 1575 1560 1553 1555 1558 1563 1566 1568 1570 1573 1575 1577 1578 1578 1577 1576 1574 1571 1568 1565 1560 1555 1549 1544 1538 1533 1527 1520 1514 1508 1503 1498 1493 1488 1483
1597 1606 1610 1613 1611 1584 1561 1564 1565 1556 1549 1550 1553 1555 1559 1562 1564 1567 1570 1572 1574 1575 1575 1575 1574 1572 1570 1567 1564 1560 1555 1550 1545 1540 1534 1528 1522 1515 1510 1504 1498 1493 1488 1483
1583 1580 1581 1582 1568 1551 1550 1547 1547 1547 1547 1548 1550 1554 1557 1559 1561 1564 1567 1569 1571 1572 1572 1572 1571 1570 1568 1566 1562 1559 1555 1550 1546 1541 1535 1529 1523 1517 1511 1504 1498 1493 1489 1484
1571 1568 1570 1568 1551 1544 1544 1543 1543 1543 1544 1546 1548 1551 1554 1555 1558 1561 1563 1566 1568 1569 1570 1570 1569 1568 1567 1564 1561 1558 1555 1551 1546 1541 1536 1530 1524 1518 1512 1506 1500 1494 1489 1485
1560 1563 1563 1558 1544 1539 1535 1535 1536 1538 1540 1543 1545 1548 1550 1553 1554 1557 1560 1563 1565 1566 1567 1567 1567 1566 1565 1563 1560 1557 1554 1550 1546 1541 1536 1531 1525 1520 1514 1508 1502 1496 1491 1488
1548 1549 1552 1542 1532 1532 1529 1529 1531 1532 1534 1538 1541 1544 1547 1549 1551 1554 1557 1559 1561 1563 1564 1564 1564 1564 1563 1561 1559 1556 1553 1549 1545 1540 1535 1530 1525 1520 1515 1510 1505 1499 1493 1488